KLM58L EGPH-EHAM

Flight info

Callsign KLM58L
Flight time 1h 18m
Altitude 25000
Route TLA Y96 OTBUN/N0453F350 DCT ERKIT/N0455F370 N110 DOLAS L603 LAMSO
Aircraft B738/M-SDE2E3FGIJ1RWY/LB1

Departure

Time 2026-05-07 17:42
Airport Edinburgh Airport (EGPH)

Arrival

Time 2026-05-07 19:01
Airport Amsterdam Airport Schiphol (EHAM)
Time Latitude Longitude Altitude Speed Heading
2026-05-07 17:19 55.94801 -3.36644 115 ft 0 kts 89°
2026-05-07 17:32 55.94801 -3.36650 115 ft 3 kts 89°
2026-05-07 17:32 55.94800 -3.36696 113 ft 4 kts 88°
2026-05-07 17:32 55.94799 -3.36736 111 ft 4 kts 67°
2026-05-07 17:32 55.94791 -3.36759 113 ft 4 kts 26°
2026-05-07 17:33 55.94763 -3.36759 112 ft 1 kts 329°
2026-05-07 17:35 55.94767 -3.36763 112 ft 2 kts 329°
2026-05-07 17:35 55.94798 -3.36776 111 ft 8 kts 357°
2026-05-07 17:35 55.94867 -3.36781 115 ft 11 kts 351°
2026-05-07 17:36 55.94938 -3.36824 114 ft 11 kts 16°
2026-05-07 17:36 55.94985 -3.36721 114 ft 11 kts 58°
2026-05-07 17:36 55.95030 -3.36590 114 ft 14 kts 59°
2026-05-07 17:36 55.95088 -3.36420 112 ft 18 kts 58°
2026-05-07 17:37 55.95159 -3.36209 113 ft 21 kts 61°
2026-05-07 17:37 55.95236 -3.35978 115 ft 21 kts 59°
2026-05-07 17:37 55.95312 -3.35756 114 ft 21 kts 59°
2026-05-07 17:37 55.95377 -3.35563 114 ft 15 kts 59°
2026-05-07 17:38 55.95421 -3.35433 114 ft 7 kts 59°
2026-05-07 17:38 55.95462 -3.35400 115 ft 7 kts 343°
2026-05-07 17:38 55.95495 -3.35435 114 ft 0 kts 329°
2026-05-07 17:40 55.95509 -3.35451 112 ft 3 kts 328°
2026-05-07 17:40 55.95534 -3.35479 111 ft 6 kts 328°
2026-05-07 17:40 55.95571 -3.35520 112 ft 5 kts 321°
2026-05-07 17:40 55.95566 -3.35579 112 ft 3 kts 238°
2026-05-07 17:41 55.95566 -3.35580 112 ft 0 kts 238°
2026-05-07 17:41 55.95545 -3.35641 112 ft 29 kts 239°
2026-05-07 17:41 55.95305 -3.36349 110 ft 102 kts 239°
2026-05-07 17:42 55.94837 -3.37730 224 ft 149 kts 237°
2026-05-07 17:42 55.94288 -3.39384 895 ft 162 kts 236°
2026-05-07 17:42 55.93670 -3.41162 1685 ft 169 kts 234°
2026-05-07 17:42 55.93029 -3.42984 2343 ft 185 kts 234°
2026-05-07 17:43 55.92304 -3.45044 2671 ft 206 kts 236°
2026-05-07 17:43 55.91509 -3.47311 3036 ft 227 kts 235°
2026-05-07 17:43 55.90619 -3.49815 3456 ft 246 kts 236°
2026-05-07 17:43 55.89576 -3.52355 4069 ft 262 kts 224°
2026-05-07 17:44 55.88598 -3.53636 4645 ft 264 kts 204°
2026-05-07 17:44 55.86811 -3.54019 5745 ft 262 kts 174°
2026-05-07 17:44 55.85011 -3.53275 5883 ft 265 kts 170°
2026-05-07 17:44 55.83246 -3.52619 6103 ft 257 kts 173°
2026-05-07 17:45 55.81446 -3.52056 6530 ft 268 kts 174°
2026-05-07 17:45 55.79635 -3.51340 7537 ft 264 kts 167°
2026-05-07 17:45 55.77873 -3.50394 8454 ft 266 kts 167°
2026-05-07 17:45 55.76080 -3.49456 9265 ft 271 kts 167°
2026-05-07 17:46 55.74268 -3.48450 10053 ft 275 kts 166°
2026-05-07 17:46 55.72396 -3.47420 10477 ft 293 kts 167°
2026-05-07 17:46 55.70365 -3.46342 10663 ft 316 kts 167°
2026-05-07 17:46 55.68180 -3.45181 10885 ft 337 kts 166°
2026-05-07 17:47 55.65902 -3.43954 11416 ft 347 kts 166°
2026-05-07 17:47 55.63580 -3.42694 12152 ft 350 kts 166°
2026-05-07 17:47 55.61251 -3.41427 12969 ft 351 kts 166°
2026-05-07 17:47 55.58899 -3.40153 13651 ft 356 kts 166°
2026-05-07 17:48 55.56514 -3.38867 14303 ft 360 kts 166°
2026-05-07 17:48 55.54112 -3.37565 15005 ft 363 kts 165°
2026-05-07 17:48 55.51849 -3.35516 15635 ft 375 kts 145°
2026-05-07 17:48 55.50092 -3.32056 16346 ft 385 kts 126°
2026-05-07 17:49 55.49005 -3.27690 17038 ft 396 kts 107°
2026-05-07 17:49 55.48474 -3.22886 17687 ft 402 kts 103°
2026-05-07 17:49 55.48011 -3.18011 18271 ft 405 kts 103°
2026-05-07 17:49 55.47534 -3.13096 18811 ft 408 kts 104°
2026-05-07 17:50 55.47025 -3.08161 19357 ft 410 kts 104°
2026-05-07 17:50 55.46490 -3.03215 19879 ft 412 kts 105°
2026-05-07 17:50 55.45680 -2.98367 20363 ft 412 kts 115°
2026-05-07 17:50 55.44404 -2.93866 20882 ft 411 kts 123°
2026-05-07 17:51 55.42980 -2.89501 21408 ft 413 kts 123°
2026-05-07 17:51 55.41540 -2.85095 21887 ft 417 kts 123°
2026-05-07 17:51 55.40101 -2.80645 22373 ft 420 kts 123°
2026-05-07 17:51 55.38666 -2.76148 22844 ft 423 kts 123°
2026-05-07 17:52 55.37246 -2.71684 23361 ft 425 kts 123°
2026-05-07 17:52 55.35798 -2.67138 23767 ft 427 kts 123°
2026-05-07 17:52 55.34335 -2.62585 24164 ft 429 kts 123°
2026-05-07 17:52 55.32859 -2.58011 24570 ft 431 kts 123°
2026-05-07 17:53 55.31377 -2.53424 24939 ft 433 kts 123°
2026-05-07 17:53 55.29885 -2.48817 25347 ft 435 kts 123°
2026-05-07 17:53 55.28194 -2.44438 25708 ft 432 kts 133°
2026-05-07 17:53 55.26143 -2.40608 26088 ft 430 kts 141°
2026-05-07 17:54 55.23806 -2.37375 26458 ft 429 kts 146°
2026-05-07 17:54 55.21408 -2.34245 26820 ft 431 kts 146°
2026-05-07 17:54 55.18995 -2.31110 27152 ft 433 kts 146°
2026-05-07 17:54 55.16575 -2.27960 27495 ft 434 kts 146°
2026-05-07 17:55 55.14157 -2.24799 27853 ft 435 kts 146°
2026-05-07 17:55 55.11730 -2.21616 28189 ft 437 kts 146°
2026-05-07 17:55 55.09295 -2.18417 28474 ft 439 kts 145°
2026-05-07 17:55 55.06846 -2.15196 28704 ft 442 kts 145°
2026-05-07 17:56 55.04384 -2.11962 29057 ft 443 kts 145°
2026-05-07 17:56 55.01935 -2.08748 29589 ft 439 kts 145°
2026-05-07 17:56 54.99506 -2.05562 30128 ft 435 kts 145°
2026-05-07 17:56 54.97092 -2.02404 30527 ft 433 kts 145°
2026-05-07 17:57 54.94684 -1.99260 30868 ft 432 kts 145°
2026-05-07 17:57 54.93096 -1.97188 31093 ft 432 kts 145°
2026-05-07 17:57 54.89890 -1.93013 31584 ft 429 kts 145°
2026-05-07 17:57 54.87505 -1.89913 31969 ft 427 kts 145°
2026-05-07 17:58 54.85128 -1.86828 32334 ft 426 kts 145°
2026-05-07 17:58 54.82762 -1.83763 32654 ft 424 kts 145°
2026-05-07 17:58 54.80399 -1.80705 33009 ft 423 kts 145°
2026-05-07 17:58 54.78044 -1.77663 33374 ft 421 kts 145°
2026-05-07 17:59 54.75702 -1.74641 33733 ft 420 kts 145°
2026-05-07 17:59 54.73360 -1.71624 34037 ft 419 kts 144°
2026-05-07 17:59 54.71021 -1.68617 34215 ft 420 kts 144°
2026-05-07 17:59 54.68667 -1.65595 34352 ft 422 kts 144°
2026-05-07 18:00 54.66306 -1.62568 34561 ft 423 kts 144°
2026-05-07 18:00 54.63941 -1.59539 34751 ft 423 kts 144°
2026-05-07 18:00 54.61573 -1.56511 34907 ft 425 kts 144°
2026-05-07 18:00 54.59194 -1.53474 35081 ft 426 kts 144°
2026-05-07 18:01 54.56808 -1.50432 35283 ft 427 kts 144°
2026-05-07 18:01 54.54414 -1.47384 35443 ft 428 kts 144°
2026-05-07 18:01 54.52019 -1.44340 35612 ft 429 kts 145°
2026-05-07 18:01 54.49615 -1.41289 35795 ft 429 kts 145°
2026-05-07 18:02 54.44790 -1.35179 36109 ft 432 kts 145°
2026-05-07 18:02 54.42371 -1.32123 36259 ft 433 kts 145°
2026-05-07 18:02 54.39944 -1.29060 36432 ft 433 kts 145°
2026-05-07 18:03 54.37512 -1.25996 36585 ft 434 kts 145°
2026-05-07 18:03 54.35105 -1.22969 36737 ft 435 kts 145°
2026-05-07 18:03 54.32665 -1.19905 36901 ft 435 kts 145°
2026-05-07 18:03 54.30219 -1.16836 37016 ft 437 kts 145°
2026-05-07 18:04 54.27758 -1.13755 37012 ft 439 kts 145°
2026-05-07 18:04 54.22834 -1.07603 37007 ft 437 kts 145°
2026-05-07 18:05 54.17954 -1.01523 37017 ft 434 kts 145°
2026-05-07 18:05 54.13057 -0.95440 37025 ft 433 kts 145°
2026-05-07 18:06 54.08186 -0.89406 37025 ft 433 kts 145°
2026-05-07 18:06 54.03308 -0.83383 37040 ft 434 kts 145°
2026-05-07 18:07 53.98370 -0.77486 37036 ft 435 kts 147°
2026-05-07 18:07 53.93364 -0.71660 37038 ft 437 kts 147°
2026-05-07 18:08 53.88343 -0.65810 37040 ft 439 kts 147°
2026-05-07 18:08 53.83296 -0.59924 37047 ft 441 kts 147°
2026-05-07 18:09 53.78236 -0.54034 37042 ft 442 kts 147°
2026-05-07 18:09 53.73153 -0.48135 37033 ft 444 kts 147°
2026-05-07 18:10 53.68058 -0.42251 37046 ft 444 kts 147°
2026-05-07 18:10 53.62943 -0.36393 37050 ft 445 kts 147°
2026-05-07 18:11 53.57936 -0.30267 37040 ft 447 kts 139°
2026-05-07 18:11 53.53928 -0.22267 37059 ft 449 kts 128°
2026-05-07 18:12 53.50223 -0.13827 37048 ft 449 kts 128°
2026-05-07 18:12 53.46488 -0.05430 37046 ft 448 kts 129°
2026-05-07 18:13 53.42730 0.02912 37047 ft 448 kts 129°
2026-05-07 18:13 53.38966 0.11219 37053 ft 447 kts 129°
2026-05-07 18:14 53.35200 0.19505 37049 ft 447 kts 129°
2026-05-07 18:14 53.31428 0.27781 37061 ft 447 kts 129°
2026-05-07 18:15 53.27660 0.36025 37051 ft 446 kts 129°
2026-05-07 18:15 53.23885 0.44253 37048 ft 446 kts 129°
2026-05-07 18:16 53.20160 0.52328 37060 ft 446 kts 129°
2026-05-07 18:16 53.16312 0.60643 37065 ft 446 kts 130°
2026-05-07 18:17 53.12511 0.68836 37069 ft 447 kts 129°
2026-05-07 18:17 53.08722 0.76979 37069 ft 448 kts 130°
2026-05-07 18:18 53.04895 0.85181 37071 ft 449 kts 130°
2026-05-07 18:18 53.01056 0.93379 37072 ft 450 kts 130°
2026-05-07 18:19 52.97882 1.02327 37079 ft 454 kts 112°
2026-05-07 18:19 52.96329 1.12522 37088 ft 458 kts 102°
2026-05-07 18:20 52.95190 1.22926 37081 ft 459 kts 102°
2026-05-07 18:20 52.94021 1.33335 36969 ft 462 kts 102°
2026-05-07 18:20 52.93410 1.38603 36464 ft 466 kts 103°
2026-05-07 18:21 52.92793 1.43854 35883 ft 463 kts 103°
2026-05-07 18:21 52.92172 1.49083 35273 ft 462 kts 103°
2026-05-07 18:21 52.91543 1.54354 34635 ft 460 kts 103°
2026-05-07 18:21 52.90920 1.59548 33997 ft 459 kts 103°
2026-05-07 18:22 52.90296 1.64725 33253 ft 457 kts 103°
2026-05-07 18:22 52.89884 1.68144 32867 ft 455 kts 103°
2026-05-07 18:22 52.89061 1.74941 32253 ft 447 kts 103°
2026-05-07 18:22 52.88462 1.79875 31822 ft 441 kts 103°
2026-05-07 18:23 52.87858 1.84824 31362 ft 436 kts 103°
2026-05-07 18:23 52.87260 1.89711 30919 ft 431 kts 103°
2026-05-07 18:23 52.86667 1.94538 30473 ft 426 kts 103°
2026-05-07 18:23 52.86076 1.99322 30015 ft 422 kts 103°
2026-05-07 18:24 52.85491 2.04054 29540 ft 417 kts 103°
2026-05-07 18:24 52.84860 2.08708 28996 ft 413 kts 105°
2026-05-07 18:24 52.84134 2.13289 28331 ft 412 kts 106°
2026-05-07 18:24 52.83367 2.17855 27729 ft 411 kts 107°
2026-05-07 18:25 52.82595 2.22388 27190 ft 408 kts 107°
2026-05-07 18:25 52.81831 2.26897 26657 ft 406 kts 107°
2026-05-07 18:25 52.81078 2.31381 26144 ft 404 kts 107°
2026-05-07 18:25 52.80333 2.35844 25624 ft 402 kts 107°
2026-05-07 18:26 52.79595 2.40287 25114 ft 400 kts 106°
2026-05-07 18:26 52.78860 2.44714 24616 ft 398 kts 107°
2026-05-07 18:26 52.78130 2.49109 24124 ft 397 kts 107°
2026-05-07 18:26 52.77400 2.53498 23627 ft 395 kts 106°
2026-05-07 18:27 52.76672 2.57866 23106 ft 393 kts 107°
2026-05-07 18:27 52.75948 2.62199 22615 ft 390 kts 107°
2026-05-07 18:27 52.75228 2.66499 22116 ft 387 kts 107°
2026-05-07 18:27 52.74754 2.69322 21804 ft 385 kts 106°
2026-05-07 18:28 52.73799 2.74997 21173 ft 382 kts 107°
2026-05-07 18:28 52.73089 2.79200 20677 ft 380 kts 107°
2026-05-07 18:28 52.72379 2.83397 20166 ft 379 kts 107°
2026-05-07 18:28 52.71908 2.86170 19869 ft 378 kts 107°
2026-05-07 18:29 52.71204 2.90314 19457 ft 374 kts 107°
2026-05-07 18:29 52.70502 2.94440 19017 ft 373 kts 107°
2026-05-07 18:29 52.69802 2.98541 18592 ft 371 kts 107°
2026-05-07 18:29 52.69104 3.02619 18147 ft 368 kts 107°
2026-05-07 18:30 52.68410 3.06664 17672 ft 366 kts 107°
2026-05-07 18:30 52.67719 3.10684 17190 ft 364 kts 107°
2026-05-07 18:30 52.67031 3.14682 16786 ft 361 kts 107°
2026-05-07 18:30 52.66348 3.18637 16382 ft 357 kts 107°
2026-05-07 18:31 52.65669 3.22559 15904 ft 356 kts 107°
2026-05-07 18:31 52.64989 3.26479 15514 ft 353 kts 107°
2026-05-07 18:31 52.64320 3.30329 15284 ft 348 kts 107°
2026-05-07 18:31 52.63655 3.34145 15034 ft 345 kts 107°
2026-05-07 18:32 52.63002 3.37886 14774 ft 334 kts 108°
2026-05-07 18:32 52.62369 3.41508 14513 ft 324 kts 107°
2026-05-07 18:32 52.61757 3.45009 14256 ft 315 kts 107°
2026-05-07 18:32 52.61156 3.48431 14016 ft 308 kts 107°
2026-05-07 18:33 52.60559 3.51821 13677 ft 310 kts 107°
2026-05-07 18:33 52.59955 3.55243 13311 ft 314 kts 107°
2026-05-07 18:33 52.59346 3.58688 12950 ft 313 kts 108°
2026-05-07 18:33 52.58739 3.62116 12581 ft 312 kts 108°
2026-05-07 18:34 52.58134 3.65530 12272 ft 309 kts 107°
2026-05-07 18:34 52.57533 3.68915 11894 ft 309 kts 108°
2026-05-07 18:34 52.56930 3.72302 11538 ft 308 kts 107°
2026-05-07 18:34 52.56330 3.75671 11186 ft 307 kts 107°
2026-05-07 18:35 52.55729 3.79033 10831 ft 304 kts 108°
2026-05-07 18:35 52.55143 3.82310 10652 ft 293 kts 108°
2026-05-07 18:35 52.54576 3.85482 10482 ft 287 kts 107°
2026-05-07 18:35 52.54014 3.88614 10071 ft 287 kts 107°
2026-05-07 18:36 52.53446 3.91769 9609 ft 288 kts 108°
2026-05-07 18:36 52.52878 3.94924 9179 ft 287 kts 108°
2026-05-07 18:36 52.52284 3.98035 8780 ft 284 kts 112°
2026-05-07 18:36 52.51575 4.01043 8422 ft 280 kts 114°
2026-05-07 18:37 52.50844 4.03995 8058 ft 278 kts 114°
2026-05-07 18:37 52.50113 4.06923 7673 ft 277 kts 114°
2026-05-07 18:37 52.49387 4.09841 7300 ft 275 kts 114°
2026-05-07 18:37 52.48668 4.12738 7131 ft 275 kts 114°
2026-05-07 18:38 52.47945 4.15661 7094 ft 277 kts 114°
2026-05-07 18:38 52.47228 4.18572 7087 ft 274 kts 113°
2026-05-07 18:38 52.46515 4.21466 7089 ft 274 kts 113°
2026-05-07 18:38 52.45799 4.24371 7087 ft 275 kts 114°
2026-05-07 18:39 52.45082 4.27278 7083 ft 275 kts 114°
2026-05-07 18:39 52.44365 4.30184 7084 ft 275 kts 113°
2026-05-07 18:39 52.43649 4.33087 7081 ft 275 kts 114°
2026-05-07 18:39 52.42933 4.35986 7088 ft 275 kts 114°
2026-05-07 18:40 52.42215 4.38888 7084 ft 275 kts 114°
2026-05-07 18:40 52.41497 4.41790 7084 ft 275 kts 114°
2026-05-07 18:40 52.40777 4.44695 7083 ft 275 kts 114°
2026-05-07 18:40 52.40056 4.47597 7080 ft 275 kts 113°
2026-05-07 18:41 52.39337 4.50490 7083 ft 275 kts 114°
2026-05-07 18:41 52.38616 4.53387 7084 ft 275 kts 114°
2026-05-07 18:41 52.37896 4.56278 7086 ft 275 kts 114°
2026-05-07 18:41 52.37173 4.59171 7080 ft 275 kts 114°
2026-05-07 18:42 52.36442 4.62058 7078 ft 275 kts 114°
2026-05-07 18:42 52.35705 4.64947 7080 ft 275 kts 114°
2026-05-07 18:42 52.34969 4.67828 7078 ft 275 kts 114°
2026-05-07 18:42 52.34234 4.70720 7076 ft 275 kts 115°
2026-05-07 18:43 52.33204 4.73288 7067 ft 270 kts 143°
2026-05-07 18:43 52.31531 4.74494 7076 ft 264 kts 176°
2026-05-07 18:43 52.29762 4.73939 7069 ft 262 kts 210°
2026-05-07 18:43 52.28508 4.71834 7077 ft 264 kts 244°
2026-05-07 18:44 52.28164 4.68889 7105 ft 271 kts 270°
2026-05-07 18:44 52.28276 4.65792 7080 ft 272 kts 272°
2026-05-07 18:44 52.28397 4.62722 7071 ft 271 kts 272°
2026-05-07 18:44 52.28517 4.59648 7078 ft 271 kts 272°
2026-05-07 18:45 52.28644 4.56587 7030 ft 270 kts 272°
2026-05-07 18:45 52.28778 4.53532 6867 ft 268 kts 273°
2026-05-07 18:45 52.28908 4.50504 6592 ft 267 kts 272°
2026-05-07 18:45 52.29044 4.47489 6280 ft 266 kts 272°
2026-05-07 18:46 52.29130 4.44515 5936 ft 265 kts 262°
2026-05-07 18:46 52.28506 4.41731 5553 ft 262 kts 237°
2026-05-07 18:46 52.27540 4.39156 5265 ft 261 kts 238°
2026-05-07 18:46 52.26595 4.36627 5102 ft 261 kts 237°
2026-05-07 18:47 52.25651 4.34109 5093 ft 260 kts 237°
2026-05-07 18:47 52.24705 4.31578 5090 ft 262 kts 237°
2026-05-07 18:47 52.23757 4.29042 5094 ft 261 kts 237°
2026-05-07 18:47 52.22813 4.26511 5083 ft 262 kts 238°
2026-05-07 18:48 52.21832 4.24011 5079 ft 262 kts 229°
2026-05-07 18:48 52.20366 4.22403 5074 ft 253 kts 193°
2026-05-07 18:48 52.18687 4.22512 5073 ft 238 kts 158°
2026-05-07 18:48 52.17234 4.23687 5076 ft 228 kts 153°
2026-05-07 18:49 52.15841 4.24890 5080 ft 226 kts 152°
2026-05-07 18:49 52.14452 4.26090 5083 ft 227 kts 152°
2026-05-07 18:49 52.13060 4.27296 5090 ft 227 kts 152°
2026-05-07 18:49 52.11582 4.28134 5064 ft 227 kts 180°
2026-05-07 18:50 52.10106 4.27369 5103 ft 226 kts 212°
2026-05-07 18:50 52.08792 4.25951 5090 ft 228 kts 212°
2026-05-07 18:50 52.07461 4.24526 5087 ft 229 kts 212°
2026-05-07 18:50 52.06126 4.23094 5083 ft 231 kts 212°
2026-05-07 18:51 52.04788 4.21656 5085 ft 231 kts 211°
2026-05-07 18:51 52.03315 4.20852 5072 ft 228 kts 176°
2026-05-07 18:51 52.01856 4.21758 5074 ft 227 kts 137°
2026-05-07 18:51 52.01116 4.23972 5076 ft 229 kts 98°
2026-05-07 18:52 52.01428 4.26483 5073 ft 233 kts 57°
2026-05-07 18:52 52.02610 4.28273 4964 ft 236 kts 33°
2026-05-07 18:52 52.03980 4.29650 4732 ft 235 kts 33°
2026-05-07 18:52 52.05353 4.30998 4625 ft 225 kts 32°
2026-05-07 18:53 52.06661 4.32267 4514 ft 214 kts 32°
2026-05-07 18:53 52.07906 4.33470 4409 ft 202 kts 32°
2026-05-07 18:53 52.09083 4.34603 4277 ft 194 kts 32°
2026-05-07 18:53 52.10242 4.35709 4073 ft 191 kts 32°
2026-05-07 18:54 52.11376 4.36790 3804 ft 189 kts 32°
2026-05-07 18:54 52.12499 4.37870 3514 ft 187 kts 33°
2026-05-07 18:54 52.13620 4.38931 3229 ft 186 kts 32°
2026-05-07 18:54 52.14730 4.39976 3054 ft 185 kts 32°
2026-05-07 18:55 52.15842 4.41032 3020 ft 185 kts 32°
2026-05-07 18:55 52.16801 4.42374 3004 ft 180 kts 56°
2026-05-07 18:55 52.17512 4.44056 3003 ft 180 kts 57°
2026-05-07 18:55 52.18207 4.45757 3013 ft 182 kts 59°
2026-05-07 18:56 52.18897 4.47521 3007 ft 183 kts 59°
2026-05-07 18:56 52.19572 4.49277 3016 ft 183 kts 59°
2026-05-07 18:56 52.20246 4.51042 3001 ft 183 kts 60°
2026-05-07 18:56 52.20919 4.52808 2953 ft 185 kts 60°
2026-05-07 18:57 52.21607 4.54615 2740 ft 189 kts 59°
2026-05-07 18:57 52.22295 4.56416 2477 ft 184 kts 59°
2026-05-07 18:57 52.22952 4.58137 2245 ft 174 kts 59°
2026-05-07 18:57 52.23582 4.59787 2022 ft 173 kts 60°
2026-05-07 18:58 52.24215 4.61447 1765 ft 168 kts 59°
2026-05-07 18:58 52.24818 4.63019 1498 ft 158 kts 59°
2026-05-07 18:58 52.25386 4.64514 1315 ft 155 kts 59°
2026-05-07 18:58 52.25935 4.65966 1098 ft 144 kts 58°
2026-05-07 18:59 52.26445 4.67294 944 ft 136 kts 58°
2026-05-07 18:59 52.26936 4.68575 737 ft 131 kts 58°
2026-05-07 18:59 52.27411 4.69810 560 ft 128 kts 58°
2026-05-07 18:59 52.27881 4.71037 402 ft 126 kts 57°
2026-05-07 19:00 52.28189 4.71846 296 ft 128 kts 57°
2026-05-07 19:00 52.28825 4.73507 65 ft 129 kts 57°
2026-05-07 19:00 52.29293 4.74714 0 ft 114 kts 57°
2026-05-07 19:00 52.29586 4.75481 -3 ft 50 kts 58°
2026-05-07 19:01 52.29760 4.75785 -3 ft 35 kts 27°
2026-05-07 19:01 52.29879 4.75887 -3 ft 9 kts 27°
2026-05-07 19:01 52.29934 4.75934 -2 ft 9 kts 27°
2026-05-07 19:01 52.29995 4.76000 -2 ft 12 kts 49°
2026-05-07 19:02 52.30040 4.76115 -2 ft 12 kts 57°
2026-05-07 19:02 52.30084 4.76227 -2 ft 12 kts 58°
2026-05-07 19:02 52.30127 4.76341 -2 ft 12 kts 57°
2026-05-07 19:02 52.30172 4.76459 -2 ft 12 kts 57°
2026-05-07 19:03 52.30216 4.76573 -2 ft 12 kts 58°
2026-05-07 19:03 52.30261 4.76690 -2 ft 14 kts 58°
2026-05-07 19:03 52.30319 4.76842 -2 ft 18 kts 57°
2026-05-07 19:03 52.30390 4.77026 -2 ft 22 kts 58°
2026-05-07 19:04 52.30474 4.77245 -2 ft 24 kts 58°
2026-05-07 19:04 52.30561 4.77471 -2 ft 21 kts 57°
2026-05-07 19:04 52.30669 4.77589 -2 ft 19 kts
2026-05-07 19:04 52.30790 4.77600 -2 ft 13 kts
2026-05-07 19:05 52.30834 4.77495 -2 ft 13 kts 274°
2026-05-07 19:05 52.30838 4.77385 -2 ft 5 kts 273°
2026-05-07 19:05 52.30869 4.77364 -2 ft 4 kts
2026-05-07 19:05 52.30892 4.77366 -2 ft 2 kts
2026-05-07 19:06 52.30895 4.77367 -2 ft 0 kts